WMT1XA LATI-EDDH

Flight info

Callsign WMT1XA
Flight time 2h 10m
Altitude 34000
Route INLOT L604 RETRA/N0448F340 DCT OSLUD DCT GUBOK/N0450F360 DCT VEBAL DCT STEIN DCT LANUX DCT LALUK DCT SOGMA M748 RARUP RARUP3D
Aircraft A321/M-SDE3FGHIRWY/LB1

Departure

Time 2026-05-09 11:11
Airport Tirana International Airport Mother Teresa (LATI)

Arrival

Time 2026-05-09 13:22
Airport Hamburg Helmut Schmidt Airport (EDDH)
Time Latitude Longitude Altitude Speed Heading
2026-05-09 10:33 41.42576 19.71433 119 ft 0 kts 268°
2026-05-09 11:02 41.42578 19.71451 114 ft 2 kts 263°
2026-05-09 11:02 41.42578 19.71477 117 ft 3 kts 294°
2026-05-09 11:02 41.42566 19.71495 116 ft 3 kts 345°
2026-05-09 11:03 41.42548 19.71499 118 ft 1 kts 354°
2026-05-09 11:03 41.42545 19.71500 117 ft 0 kts 354°
2026-05-09 11:07 41.42555 19.71498 115 ft 2 kts 354°
2026-05-09 11:07 41.42577 19.71495 116 ft 4 kts 354°
2026-05-09 11:08 41.42611 19.71491 115 ft 6 kts 354°
2026-05-09 11:08 41.42652 19.71498 118 ft 6 kts 42°
2026-05-09 11:08 41.42664 19.71559 117 ft 8 kts 82°
2026-05-09 11:08 41.42671 19.71634 118 ft 9 kts 84°
2026-05-09 11:09 41.42677 19.71711 118 ft 3 kts 84°
2026-05-09 11:09 41.42677 19.71722 118 ft 2 kts 84°
2026-05-09 11:09 41.42679 19.71743 116 ft 3 kts 84°
2026-05-09 11:09 41.42682 19.71783 115 ft 7 kts 85°
2026-05-09 11:10 41.42687 19.71866 118 ft 9 kts 86°
2026-05-09 11:10 41.42654 19.71897 117 ft 0 kts 172°
2026-05-09 11:10 41.42627 19.71902 119 ft 16 kts 172°
2026-05-09 11:11 41.42251 19.71955 119 ft 90 kts 174°
2026-05-09 11:11 41.41412 19.72066 128 ft 149 kts 174°
2026-05-09 11:11 41.40266 19.72224 453 ft 169 kts 174°
2026-05-09 11:11 41.39100 19.72388 1125 ft 170 kts 175°
2026-05-09 11:12 41.37891 19.72564 1552 ft 181 kts 175°
2026-05-09 11:12 41.36583 19.72750 1816 ft 199 kts 175°
2026-05-09 11:12 41.35137 19.72934 1955 ft 219 kts 175°
2026-05-09 11:12 41.33535 19.73135 2095 ft 243 kts 176°
2026-05-09 11:13 41.31771 19.73357 2539 ft 261 kts 175°
2026-05-09 11:13 41.29953 19.73591 3297 ft 265 kts 176°
2026-05-09 11:13 41.28108 19.73829 4040 ft 269 kts 175°
2026-05-09 11:13 41.26235 19.74009 4820 ft 271 kts 185°
2026-05-09 11:14 41.24477 19.73207 5470 ft 271 kts 220°
2026-05-09 11:14 41.23373 19.71242 6127 ft 269 kts 254°
2026-05-09 11:14 41.23306 19.68802 6801 ft 269 kts 288°
2026-05-09 11:14 41.24299 19.66724 7420 ft 272 kts 321°
2026-05-09 11:15 41.26022 19.65710 8116 ft 276 kts 348°
2026-05-09 11:15 41.27932 19.65298 8909 ft 280 kts 351°
2026-05-09 11:15 41.29873 19.64912 9612 ft 284 kts 349°
2026-05-09 11:15 41.31835 19.64485 10255 ft 290 kts 349°
2026-05-09 11:16 41.33902 19.63985 10411 ft 313 kts 348°
2026-05-09 11:16 41.36113 19.63401 10580 ft 333 kts 347°
2026-05-09 11:16 41.38408 19.62757 11098 ft 340 kts 347°
2026-05-09 11:16 41.40725 19.62085 11730 ft 343 kts 346°
2026-05-09 11:17 41.43062 19.61398 12383 ft 345 kts 346°
2026-05-09 11:17 41.45418 19.60704 13027 ft 348 kts 346°
2026-05-09 11:17 41.47790 19.60005 13691 ft 351 kts 346°
2026-05-09 11:17 41.50185 19.59303 14301 ft 353 kts 346°
2026-05-09 11:18 41.52595 19.58600 14853 ft 356 kts 346°
2026-05-09 11:18 41.55029 19.57893 15418 ft 360 kts 346°
2026-05-09 11:18 41.57483 19.57178 15999 ft 363 kts 346°
2026-05-09 11:18 41.59957 19.56456 16602 ft 365 kts 346°
2026-05-09 11:19 41.62442 19.55731 17205 ft 367 kts 346°
2026-05-09 11:19 41.64940 19.55003 17803 ft 369 kts 346°
2026-05-09 11:19 41.67456 19.54269 18380 ft 371 kts 345°
2026-05-09 11:19 41.69984 19.53530 18875 ft 373 kts 345°
2026-05-09 11:20 41.72531 19.52785 19355 ft 376 kts 345°
2026-05-09 11:20 41.75094 19.52035 19847 ft 379 kts 345°
2026-05-09 11:20 41.77677 19.51279 20318 ft 381 kts 345°
2026-05-09 11:20 41.80278 19.50516 20812 ft 384 kts 345°
2026-05-09 11:21 41.82896 19.49744 21292 ft 387 kts 345°
2026-05-09 11:21 41.85534 19.48967 21763 ft 389 kts 345°
2026-05-09 11:21 41.88190 19.48182 22238 ft 392 kts 345°
2026-05-09 11:21 41.90827 19.47404 22687 ft 395 kts 344°
2026-05-09 11:22 41.93517 19.46609 23129 ft 397 kts 344°
2026-05-09 11:22 41.96226 19.45808 23560 ft 400 kts 344°
2026-05-09 11:22 41.98917 19.44852 23918 ft 400 kts 338°
2026-05-09 11:22 42.01548 19.43605 24268 ft 402 kts 337°
2026-05-09 11:23 42.04191 19.42349 24635 ft 404 kts 337°
2026-05-09 11:23 42.06854 19.41086 24995 ft 407 kts 337°
2026-05-09 11:23 42.09528 19.39819 25345 ft 409 kts 337°
2026-05-09 11:23 42.12217 19.38542 25696 ft 411 kts 337°
2026-05-09 11:24 42.14922 19.37257 26025 ft 413 kts 337°
2026-05-09 11:24 42.17639 19.35964 26367 ft 416 kts 338°
2026-05-09 11:24 42.20378 19.34660 26649 ft 419 kts 337°
2026-05-09 11:24 42.23136 19.33346 26958 ft 421 kts 338°
2026-05-09 11:25 42.25920 19.32072 27274 ft 424 kts 339°
2026-05-09 11:25 42.28735 19.30849 27589 ft 427 kts 339°
2026-05-09 11:25 42.30655 19.30037 27802 ft 428 kts 339°
2026-05-09 11:25 42.33507 19.28844 28115 ft 431 kts 340°
2026-05-09 11:26 42.36376 19.27641 28421 ft 433 kts 339°
2026-05-09 11:26 42.39257 19.26421 28728 ft 435 kts 339°
2026-05-09 11:26 42.42155 19.25183 28976 ft 438 kts 339°
2026-05-09 11:26 42.45069 19.23925 29253 ft 441 kts 339°
2026-05-09 11:27 42.47994 19.22651 29534 ft 443 kts 339°
2026-05-09 11:27 42.50935 19.21372 29825 ft 445 kts 339°
2026-05-09 11:27 42.53891 19.20089 30115 ft 447 kts 339°
2026-05-09 11:27 42.56823 19.18815 30375 ft 449 kts 339°
2026-05-09 11:28 42.59801 19.17517 30658 ft 450 kts 339°
2026-05-09 11:28 42.62781 19.16220 31027 ft 449 kts 339°
2026-05-09 11:28 42.65750 19.14928 31419 ft 447 kts 339°
2026-05-09 11:28 42.68707 19.13641 31800 ft 445 kts 339°
2026-05-09 11:29 42.71654 19.12356 32188 ft 444 kts 339°
2026-05-09 11:29 42.74582 19.11084 32612 ft 440 kts 338°
2026-05-09 11:29 42.77492 19.09820 33054 ft 437 kts 338°
2026-05-09 11:29 42.80374 19.08563 33511 ft 433 kts 338°
2026-05-09 11:30 42.83239 19.07311 33871 ft 433 kts 338°
2026-05-09 11:30 42.86104 19.06053 34050 ft 431 kts 338°
2026-05-09 11:30 42.88941 19.04799 34078 ft 426 kts 338°
2026-05-09 11:31 42.94562 19.02317 34082 ft 424 kts 338°
2026-05-09 11:31 43.00168 18.99851 34077 ft 423 kts 338°
2026-05-09 11:32 43.05800 18.97377 34084 ft 427 kts 338°
2026-05-09 11:32 43.11468 18.94879 34089 ft 428 kts 338°
2026-05-09 11:33 43.17131 18.92357 34091 ft 428 kts 338°
2026-05-09 11:33 43.25629 18.88586 34102 ft 428 kts 338°
2026-05-09 11:34 43.31299 18.86068 34119 ft 428 kts 338°
2026-05-09 11:34 43.36963 18.83535 34114 ft 428 kts 338°
2026-05-09 11:35 43.42626 18.80994 34123 ft 428 kts 338°
2026-05-09 11:35 43.48281 18.78432 34120 ft 427 kts 336°
2026-05-09 11:36 43.53757 18.75484 34131 ft 424 kts 333°
2026-05-09 11:36 43.59163 18.72240 34136 ft 423 kts 332°
2026-05-09 11:37 43.64604 18.68997 34140 ft 423 kts 333°
2026-05-09 11:37 43.70003 18.65868 34110 ft 424 kts 333°
2026-05-09 11:38 43.75452 18.62729 34103 ft 425 kts 333°
2026-05-09 11:38 43.80911 18.59584 34127 ft 424 kts 333°
2026-05-09 11:39 43.86345 18.56431 34144 ft 423 kts 333°
2026-05-09 11:40 43.94486 18.51681 34113 ft 424 kts 333°
2026-05-09 11:40 43.99928 18.48508 34100 ft 424 kts 333°
2026-05-09 11:41 44.05374 18.45315 34101 ft 425 kts 333°
2026-05-09 11:41 44.10828 18.42114 34098 ft 426 kts 333°
2026-05-09 11:42 44.16299 18.38897 34089 ft 428 kts 333°
2026-05-09 11:42 44.21787 18.35671 34085 ft 428 kts 333°
2026-05-09 11:43 44.27284 18.32431 34093 ft 429 kts 333°
2026-05-09 11:43 44.32789 18.29176 34093 ft 430 kts 333°
2026-05-09 11:44 44.38295 18.25904 34090 ft 431 kts 333°
2026-05-09 11:44 44.43812 18.22630 34098 ft 430 kts 333°
2026-05-09 11:45 44.49324 18.19359 34114 ft 430 kts 333°
2026-05-09 11:45 44.54835 18.16087 34103 ft 430 kts 333°
2026-05-09 11:46 44.60347 18.12799 34090 ft 431 kts 333°
2026-05-09 11:46 44.65862 18.09496 34086 ft 431 kts 333°
2026-05-09 11:47 44.71383 18.06171 34096 ft 431 kts 332°
2026-05-09 11:47 44.76897 18.02837 34107 ft 431 kts 332°
2026-05-09 11:48 44.82412 17.99505 34102 ft 432 kts 332°
2026-05-09 11:48 44.87934 17.96176 34098 ft 432 kts 332°
2026-05-09 11:49 44.93459 17.92843 34093 ft 432 kts 332°
2026-05-09 11:49 44.98984 17.89500 34089 ft 432 kts 332°
2026-05-09 11:50 45.04518 17.86137 34103 ft 433 kts 332°
2026-05-09 11:50 45.10074 17.82824 34136 ft 435 kts 333°
2026-05-09 11:50 45.12840 17.81208 34346 ft 437 kts 333°
2026-05-09 11:51 45.15651 17.79574 34616 ft 437 kts 333°
2026-05-09 11:51 45.18462 17.77940 34876 ft 437 kts 333°
2026-05-09 11:51 45.21277 17.76294 35086 ft 438 kts 333°
2026-05-09 11:51 45.24090 17.74637 35351 ft 438 kts 333°
2026-05-09 11:52 45.26898 17.72971 35618 ft 437 kts 333°
2026-05-09 11:52 45.29703 17.71304 35895 ft 437 kts 333°
2026-05-09 11:52 45.32508 17.69636 36048 ft 437 kts 333°
2026-05-09 11:53 45.38118 17.66315 36078 ft 436 kts 333°
2026-05-09 11:53 45.43707 17.62993 36078 ft 435 kts 333°
2026-05-09 11:54 45.49298 17.59665 36081 ft 436 kts 333°
2026-05-09 11:54 45.54887 17.56332 36076 ft 435 kts 333°
2026-05-09 11:55 45.60477 17.52990 36075 ft 436 kts 333°
2026-05-09 11:56 45.77282 17.42917 36086 ft 437 kts 333°
2026-05-09 11:57 45.82879 17.39523 36086 ft 437 kts 332°
2026-05-09 11:57 45.88479 17.36115 36087 ft 437 kts 332°
2026-05-09 11:58 45.94092 17.32711 36086 ft 438 kts 333°
2026-05-09 11:58 45.99712 17.29332 36089 ft 439 kts 334°
2026-05-09 11:59 46.05488 17.26404 36098 ft 441 kts 338°
2026-05-09 11:59 46.11361 17.23794 36108 ft 442 kts 338°
2026-05-09 12:00 46.17224 17.21134 36103 ft 441 kts 337°
2026-05-09 12:00 46.23054 17.18364 36102 ft 441 kts 337°
2026-05-09 12:01 46.28874 17.15552 36104 ft 441 kts 337°
2026-05-09 12:01 46.34699 17.12752 36111 ft 441 kts 337°
2026-05-09 12:02 46.40534 17.09964 36122 ft 442 kts 337°
2026-05-09 12:02 46.46330 17.07190 36129 ft 442 kts 337°
2026-05-09 12:03 46.52162 17.04379 36150 ft 441 kts 336°
2026-05-09 12:03 46.57993 17.01571 36140 ft 441 kts 337°
2026-05-09 12:04 46.63824 16.98756 36135 ft 441 kts 337°
2026-05-09 12:04 46.69651 16.95935 36131 ft 441 kts 337°
2026-05-09 12:05 46.75477 16.93122 36141 ft 441 kts 337°
2026-05-09 12:05 46.81305 16.90292 36140 ft 441 kts 336°
2026-05-09 12:06 46.87128 16.87452 36131 ft 441 kts 336°
2026-05-09 12:06 46.92941 16.84601 36123 ft 440 kts 336°
2026-05-09 12:07 46.98751 16.81745 36137 ft 440 kts 336°
2026-05-09 12:07 47.04558 16.78895 36126 ft 440 kts 336°
2026-05-09 12:08 47.10362 16.76041 36126 ft 440 kts 336°
2026-05-09 12:08 47.16167 16.73186 36127 ft 440 kts 336°
2026-05-09 12:09 47.21970 16.70326 36153 ft 440 kts 336°
2026-05-09 12:09 47.27760 16.67450 36147 ft 439 kts 336°
2026-05-09 12:10 47.38872 16.60602 36128 ft 432 kts 328°
2026-05-09 12:11 47.44247 16.56625 36131 ft 432 kts 328°
2026-05-09 12:11 47.49613 16.52641 36146 ft 431 kts 328°
2026-05-09 12:12 47.54969 16.48647 36138 ft 431 kts 328°
2026-05-09 12:12 47.60321 16.44650 36139 ft 430 kts 328°
2026-05-09 12:13 47.65668 16.40659 36141 ft 430 kts 328°
2026-05-09 12:13 47.70111 16.37339 36140 ft 430 kts 328°
2026-05-09 12:14 47.75455 16.33328 36139 ft 430 kts 328°
2026-05-09 12:14 47.80796 16.29314 36139 ft 430 kts 328°
2026-05-09 12:15 47.86141 16.25296 36147 ft 430 kts 328°
2026-05-09 12:15 47.91481 16.21270 36147 ft 430 kts 328°
2026-05-09 12:16 47.96819 16.17238 36166 ft 430 kts 328°
2026-05-09 12:16 48.02154 16.13191 36157 ft 430 kts 328°
2026-05-09 12:17 48.07483 16.09135 36151 ft 430 kts 328°
2026-05-09 12:17 48.12814 16.05077 36155 ft 430 kts 328°
2026-05-09 12:18 48.18147 16.01008 36177 ft 430 kts 328°
2026-05-09 12:18 48.23476 15.96933 36168 ft 430 kts 328°
2026-05-09 12:19 48.28774 15.92863 36160 ft 431 kts 328°
2026-05-09 12:19 48.34113 15.88751 36159 ft 431 kts 328°
2026-05-09 12:20 48.39453 15.84638 36155 ft 431 kts 328°
2026-05-09 12:20 48.44802 15.80523 36170 ft 432 kts 328°
2026-05-09 12:21 48.50151 15.76385 36162 ft 432 kts 328°
2026-05-09 12:21 48.55501 15.72239 36154 ft 433 kts 328°
2026-05-09 12:22 48.60864 15.68080 36153 ft 433 kts 328°
2026-05-09 12:22 48.66226 15.63896 36153 ft 434 kts 328°
2026-05-09 12:23 48.71596 15.59693 36163 ft 435 kts 328°
2026-05-09 12:23 48.76979 15.55470 36159 ft 436 kts 328°
2026-05-09 12:24 48.82363 15.51234 36150 ft 436 kts 328°
2026-05-09 12:24 48.87754 15.46986 36144 ft 437 kts 329°
2026-05-09 12:25 48.93151 15.42731 36162 ft 437 kts 329°
2026-05-09 12:25 48.98556 15.38458 36160 ft 438 kts 329°
2026-05-09 12:26 49.03968 15.34166 36165 ft 439 kts 329°
2026-05-09 12:26 49.09351 15.29893 36162 ft 439 kts 329°
2026-05-09 12:27 49.14767 15.25559 36161 ft 439 kts 329°
2026-05-09 12:27 49.20186 15.21233 36185 ft 440 kts 329°
2026-05-09 12:28 49.25611 15.16897 36183 ft 440 kts 329°
2026-05-09 12:28 49.31033 15.12536 36174 ft 440 kts 329°
2026-05-09 12:29 49.36456 15.08174 36179 ft 440 kts 329°
2026-05-09 12:29 49.41876 15.03796 36180 ft 440 kts 329°
2026-05-09 12:30 49.47294 14.99411 36192 ft 440 kts 329°
2026-05-09 12:30 49.55423 14.92823 36190 ft 440 kts 329°
2026-05-09 12:31 49.63539 14.86191 36188 ft 440 kts 329°
2026-05-09 12:32 49.68951 14.81763 36188 ft 440 kts 329°
2026-05-09 12:32 49.74363 14.77324 36191 ft 441 kts 329°
2026-05-09 12:33 49.79779 14.72881 36192 ft 441 kts 329°
2026-05-09 12:33 49.85196 14.68419 36195 ft 441 kts 329°
2026-05-09 12:34 49.90607 14.63949 36194 ft 441 kts 330°
2026-05-09 12:34 49.95977 14.59499 36221 ft 440 kts 330°
2026-05-09 12:35 50.01378 14.55019 36221 ft 440 kts 330°
2026-05-09 12:35 50.06770 14.50535 36218 ft 439 kts 330°
2026-05-09 12:36 50.12150 14.46041 36214 ft 439 kts 330°
2026-05-09 12:36 50.17534 14.41544 36196 ft 439 kts 330°
2026-05-09 12:37 50.22914 14.37037 36192 ft 439 kts 330°
2026-05-09 12:37 50.28286 14.32501 36200 ft 439 kts 330°
2026-05-09 12:38 50.33657 14.27969 36198 ft 439 kts 330°
2026-05-09 12:38 50.39030 14.23444 36196 ft 438 kts 330°
2026-05-09 12:39 50.44400 14.18904 36195 ft 438 kts 330°
2026-05-09 12:39 50.49758 14.14347 36207 ft 438 kts 331°
2026-05-09 12:40 50.55110 14.09782 36202 ft 437 kts 331°
2026-05-09 12:40 50.60449 14.05227 36188 ft 436 kts 331°
2026-05-09 12:41 50.65772 14.00668 36191 ft 435 kts 331°
2026-05-09 12:41 50.71079 13.96113 36190 ft 434 kts 331°
2026-05-09 12:42 50.76376 13.91552 36201 ft 433 kts 331°
2026-05-09 12:42 50.81638 13.86930 36204 ft 432 kts 329°
2026-05-09 12:43 50.86718 13.81846 36204 ft 432 kts 326°
2026-05-09 12:43 50.91669 13.76562 36205 ft 432 kts 326°
2026-05-09 12:44 50.96666 13.71281 36207 ft 432 kts 327°
2026-05-09 12:44 51.01696 13.66070 36218 ft 431 kts 327°
2026-05-09 12:45 51.06723 13.60868 36214 ft 431 kts 327°
2026-05-09 12:45 51.11738 13.55639 36213 ft 431 kts 327°
2026-05-09 12:46 51.16747 13.50401 36212 ft 431 kts 327°
2026-05-09 12:46 51.21756 13.45163 36207 ft 430 kts 327°
2026-05-09 12:47 51.26757 13.39919 36201 ft 430 kts 327°
2026-05-09 12:47 51.31745 13.34660 36211 ft 429 kts 327°
2026-05-09 12:48 51.36720 13.29403 36212 ft 428 kts 327°
2026-05-09 12:48 51.41682 13.24140 36212 ft 428 kts 327°
2026-05-09 12:49 51.46638 13.18873 36214 ft 427 kts 327°
2026-05-09 12:49 51.51589 13.13602 36212 ft 427 kts 327°
2026-05-09 12:50 51.56530 13.08330 36214 ft 426 kts 327°
2026-05-09 12:50 51.61460 13.03056 36218 ft 425 kts 327°
2026-05-09 12:51 51.66382 12.97776 36222 ft 425 kts 327°
2026-05-09 12:51 51.71297 12.92486 36219 ft 424 kts 327°
2026-05-09 12:52 51.76200 12.87192 36213 ft 424 kts 327°
2026-05-09 12:52 51.81097 12.81888 36215 ft 424 kts 327°
2026-05-09 12:53 51.85994 12.76583 36221 ft 423 kts 327°
2026-05-09 12:53 51.90887 12.71274 36207 ft 423 kts 327°
2026-05-09 12:54 51.95769 12.65954 36207 ft 423 kts 327°
2026-05-09 12:54 52.00614 12.60656 36209 ft 423 kts 327°
2026-05-09 12:55 52.05485 12.55305 36212 ft 423 kts 327°
2026-05-09 12:55 52.10361 12.49958 36226 ft 423 kts 327°
2026-05-09 12:56 52.15231 12.44602 36217 ft 422 kts 327°
2026-05-09 12:56 52.20088 12.39225 36196 ft 422 kts 327°
2026-05-09 12:57 52.24944 12.33837 36196 ft 422 kts 327°
2026-05-09 12:57 52.29804 12.28449 36198 ft 422 kts 327°
2026-05-09 12:58 52.34657 12.23040 36202 ft 422 kts 327°
2026-05-09 12:58 52.39472 12.17638 36211 ft 422 kts 327°
2026-05-09 12:59 52.44321 12.12203 36205 ft 422 kts 327°
2026-05-09 12:59 52.49172 12.06769 36195 ft 423 kts 327°
2026-05-09 13:00 52.54032 12.01303 36151 ft 424 kts 326°
2026-05-09 13:00 52.56484 11.98536 35426 ft 430 kts 327°
2026-05-09 13:00 52.58958 11.95747 34702 ft 432 kts 327°
2026-05-09 13:00 52.61442 11.92943 33953 ft 433 kts 328°
2026-05-09 13:01 52.63922 11.90121 33129 ft 432 kts 327°
2026-05-09 13:01 52.66332 11.87233 32323 ft 425 kts 325°
2026-05-09 13:01 52.68663 11.84296 31567 ft 419 kts 324°
2026-05-09 13:01 52.70931 11.81353 30842 ft 412 kts 323°
2026-05-09 13:02 52.73143 11.78466 30392 ft 402 kts 323°
2026-05-09 13:02 52.75302 11.75668 29884 ft 398 kts 324°
2026-05-09 13:02 52.77471 11.72883 29426 ft 392 kts 324°
2026-05-09 13:02 52.79616 11.70144 28975 ft 387 kts 324°
2026-05-09 13:03 52.81733 11.67447 28547 ft 382 kts 324°
2026-05-09 13:03 52.83823 11.64786 28115 ft 377 kts 323°
2026-05-09 13:03 52.85891 11.62155 27714 ft 373 kts 323°
2026-05-09 13:03 52.87932 11.59546 27360 ft 368 kts 322°
2026-05-09 13:04 52.89906 11.56879 26988 ft 367 kts 321°
2026-05-09 13:04 52.91842 11.54127 26527 ft 367 kts 320°
2026-05-09 13:04 52.93755 11.51338 26043 ft 366 kts 319°
2026-05-09 13:04 52.95663 11.48532 25555 ft 367 kts 319°
2026-05-09 13:05 52.97573 11.45730 25070 ft 367 kts 319°
2026-05-09 13:05 52.99488 11.42934 24584 ft 367 kts 319°
2026-05-09 13:05 53.01416 11.40145 24060 ft 368 kts 319°
2026-05-09 13:05 53.03358 11.37347 23447 ft 371 kts 319°
2026-05-09 13:06 53.04653 11.35482 22992 ft 373 kts 319°
2026-05-09 13:06 53.06619 11.32647 22313 ft 375 kts 319°
2026-05-09 13:06 53.08593 11.29788 21654 ft 378 kts 319°
2026-05-09 13:06 53.10577 11.26909 21011 ft 379 kts 319°
2026-05-09 13:07 53.12571 11.24030 20364 ft 378 kts 319°
2026-05-09 13:07 53.14541 11.21207 19748 ft 369 kts 319°
2026-05-09 13:07 53.16472 11.18455 19158 ft 361 kts 319°
2026-05-09 13:07 53.18371 11.15758 18683 ft 358 kts 319°
2026-05-09 13:08 53.20263 11.13079 18178 ft 356 kts 319°
2026-05-09 13:08 53.22149 11.10414 17641 ft 354 kts 319°
2026-05-09 13:08 53.24024 11.07762 17113 ft 353 kts 319°
2026-05-09 13:08 53.25891 11.05122 16592 ft 351 kts 319°
2026-05-09 13:09 53.27746 11.02490 16082 ft 349 kts 319°
2026-05-09 13:09 53.29590 10.99879 15577 ft 346 kts 319°
2026-05-09 13:09 53.31424 10.97287 15081 ft 344 kts 319°
2026-05-09 13:09 53.33243 10.94705 14590 ft 342 kts 319°
2026-05-09 13:10 53.35053 10.92137 14103 ft 340 kts 319°
2026-05-09 13:10 53.36857 10.89595 13596 ft 338 kts 319°
2026-05-09 13:10 53.38653 10.87067 13065 ft 336 kts 318°
2026-05-09 13:10 53.40438 10.84553 12591 ft 334 kts 319°
2026-05-09 13:11 53.42204 10.82057 12128 ft 331 kts 318°
2026-05-09 13:11 53.43965 10.79594 11670 ft 329 kts 319°
2026-05-09 13:11 53.45710 10.77130 11226 ft 327 kts 319°
2026-05-09 13:11 53.47420 10.74704 10790 ft 326 kts 318°
2026-05-09 13:12 53.49149 10.72259 10358 ft 324 kts 319°
2026-05-09 13:12 53.50844 10.69854 10173 ft 313 kts 319°
2026-05-09 13:12 53.52473 10.67562 10195 ft 298 kts 319°
2026-05-09 13:12 53.54048 10.65323 10053 ft 297 kts 319°
2026-05-09 13:13 53.55604 10.63117 9565 ft 288 kts 319°
2026-05-09 13:13 53.57125 10.60962 9084 ft 284 kts 319°
2026-05-09 13:13 53.58623 10.58840 8629 ft 279 kts 319°
2026-05-09 13:13 53.60089 10.56736 8169 ft 275 kts 319°
2026-05-09 13:14 53.61518 10.54673 7695 ft 265 kts 318°
2026-05-09 13:14 53.62870 10.52647 7275 ft 254 kts 316°
2026-05-09 13:16 53.71236 10.38967 4296 ft 224 kts 315°
2026-05-09 13:16 53.72338 10.37130 3918 ft 223 kts 315°
2026-05-09 13:16 53.73442 10.35279 3535 ft 224 kts 315°
2026-05-09 13:16 53.74503 10.33340 3143 ft 226 kts 302°
2026-05-09 13:17 53.74925 10.30894 3011 ft 211 kts 270°
2026-05-09 13:17 53.74898 10.28513 3001 ft 195 kts 265°
2026-05-09 13:17 53.74821 10.26278 3032 ft 188 kts 264°
2026-05-09 13:17 53.74744 10.24093 3010 ft 185 kts 263°
2026-05-09 13:18 53.74382 10.22059 3009 ft 180 kts 239°
2026-05-09 13:18 53.73628 10.20384 3007 ft 179 kts 227°
2026-05-09 13:18 53.72845 10.18784 2894 ft 179 kts 229°
2026-05-09 13:18 53.72052 10.17164 2690 ft 178 kts 228°
2026-05-09 13:19 53.71264 10.15556 2459 ft 177 kts 228°
2026-05-09 13:19 53.70484 10.13966 2214 ft 174 kts 226°
2026-05-09 13:19 53.69731 10.12428 1985 ft 167 kts 226°
2026-05-09 13:19 53.68994 10.10928 1787 ft 166 kts 226°
2026-05-09 13:20 53.68260 10.09435 1541 ft 165 kts 227°
2026-05-09 13:20 53.67530 10.07949 1307 ft 159 kts 227°
2026-05-09 13:20 53.66849 10.06563 1104 ft 150 kts 227°
2026-05-09 13:20 53.66189 10.05224 904 ft 148 kts 227°
2026-05-09 13:21 53.65537 10.03900 688 ft 147 kts 227°
2026-05-09 13:21 53.64886 10.02576 507 ft 147 kts 229°
2026-05-09 13:21 53.64235 10.01243 291 ft 147 kts 230°
2026-05-09 13:21 53.63578 9.99923 99 ft 147 kts 228°
2026-05-09 13:22 53.62954 9.98674 45 ft 120 kts 231°
2026-05-09 13:22 53.62589 9.97929 41 ft 62 kts 230°
2026-05-09 13:22 53.62364 9.97473 40 ft 33 kts 232°
2026-05-09 13:23 53.62187 9.97589 47 ft 12 kts 64°
2026-05-09 13:23 53.62253 9.97728 47 ft 17 kts 50°
2026-05-09 13:24 53.62332 9.97891 47 ft 19 kts 50°
2026-05-09 13:24 53.62422 9.98071 47 ft 21 kts 45°
2026-05-09 13:24 53.62535 9.98239 47 ft 23 kts 47°
2026-05-09 13:24 53.62639 9.98450 47 ft 24 kts 50°
2026-05-09 13:25 53.62726 9.98628 47 ft 13 kts 50°
2026-05-09 13:25 53.62791 9.98754 47 ft 15 kts 49°
2026-05-09 13:25 53.62930 9.99039 47 ft 16 kts 49°
2026-05-09 13:26 53.63006 9.99187 47 ft 18 kts 49°
2026-05-09 13:26 53.63056 9.99320 47 ft 9 kts 52°
2026-05-09 13:26 53.63101 9.99411 46 ft 12 kts 52°
2026-05-09 13:26 53.63157 9.99532 46 ft 14 kts 52°
2026-05-09 13:27 53.63212 9.99651 48 ft 9 kts 52°
2026-05-09 13:27 53.63225 9.99745 46 ft 10 kts 120°
2026-05-09 13:27 53.63161 9.99815 47 ft 11 kts 151°
2026-05-09 13:27 53.63094 9.99872 48 ft 10 kts 153°
2026-05-09 13:28 53.63038 9.99921 48 ft 8 kts 152°
2026-05-09 13:28 53.62982 9.99970 48 ft 9 kts 153°
2026-05-09 13:28 53.62945 10.00034 48 ft 6 kts 106°
2026-05-09 13:28 53.62933 10.00096 48 ft 6 kts 114°
2026-05-09 13:29 53.62914 10.00153 48 ft 5 kts 121°
2026-05-09 13:29 53.62899 10.00193 48 ft 3 kts 122°
2026-05-09 13:29 53.62891 10.00214 48 ft 1 kts 122°
2026-05-09 13:29 53.62885 10.00229 47 ft 2 kts 122°